This is the latest recevied weather packets stored in our database for station/object K4IR. If no packets are shown the sender has not sent any weather packets the latest 1 day(s).
| Time | Temp. | Humidity | Pressure | Rain* | Wind** | Luminosity | Snow |
|---|---|---|---|---|---|---|---|
| 1777979925 | 10° C | 99% | 1017.9 hPa | 0 mm | 0 m/s | 33 W/m² | - |
| 1777979322 | 10° C | 98% | 1017.9 hPa | 0 mm | 0 m/s | 24 W/m² | - |
| 1777978721 | 10° C | 98% | 1017.8 hPa | 0 mm | 0 m/s | 18 W/m² | - |
| 1777978119 | 9.44° C | 98% | 1017.7 hPa | 0 mm | 0 m/s | 15 W/m² | - |
| 1777977519 | 9.44° C | 98% | 1017.6 hPa | 0 mm | 0 m/s | 10 W/m² | - |
| 1777976914 | 9.44° C | 98% | 1017.4 hPa | 0 mm | 0 m/s | 5 W/m² | - |
| 1777976312 | 9.44° C | 98% | 1017.3 hPa | 0 mm | 0 m/s | 2 W/m² | - |
| 1777975710 | 9.44° C | 98% | 1017.2 hPa | 0 mm | 0 m/s | 0 W/m² | - |
| 1777975108 | 9.44° C | 98% | 1017 hPa | 0 mm | 0 m/s | 0 W/m² | - |
| 1777974507 | 9.44° C | 98% | 1017.2 hPa | 0 mm | 0 m/s | 0 W/m² | - |
| 1777973905 | 9.44° C | 98% | 1017 hPa | 0 mm | 0 m/s | 0 W/m² | - |
| 1777973300 | 9.44° C | 98% | 1017.1 hPa | 0 mm | 0 m/s | 0 W/m² | - |
| 1777972695 | 9.44° C | 98% | 1016.6 hPa | 0 mm | 0 m/s | 0 W/m² | - |
| 1777972091 | 9.44° C | 98% | 1016.7 hPa | 0 mm | 0 m/s | 0 W/m² | - |
| 1777971486 | 10° C | 98% | 1016.7 hPa | 0 mm | 0 m/s | 0 W/m² | - |
| 1777970881 | 10° C | 98% | 1016.7 hPa | 0 mm | 0 m/s | 0 W/m² | - |
| 1777970276 | 10° C | 98% | 1016.6 hPa | 0 mm | 0 m/s | 0 W/m² | - |
| 1777969676 | 10° C | 98% | 1016.6 hPa | 0 mm | 0 m/s | 0 W/m² | - |
| 1777969074 | 10° C | 98% | 1016.6 hPa | 0 mm | 0 m/s | 0 W/m² | - |
| 1777968474 | 10.56° C | 98% | 1016.6 hPa | 0 mm | 0 m/s | 0 W/m² | - |
* Rain latest hour (hover to see other rain measurements)
** Current wind speed in m/s (hover to see current wind gust speed)